{"data":{"norad_id":62682,"intl_designator":"2025-009CB","name":"FOREST-3","alt_names":[],"object_type":"PAYLOAD","status":"ACTIVE","operator":null,"country":"GER","launch_date":"2025-01-14","launch_site_code":"AFWTR","launch_vehicle":null,"mission":null,"orbit_class":"UNKNOWN","rcs_meters":null,"size_class":null,"mass_kg":null,"dimensions":null,"purposes":[],"wikipedia_slug":null,"has_3d_model":false,"image_url":null,"decayed_at":null,"tle_current":{"epoch":"2026-09-22T04:34:13.406880Z","epoch_age_seconds":173614,"freshness":"STALE","line1":"1 62682U 25009CB  26265.19043295  .00003715  00000+0  14817-3 0  9993","line2":"2 62682  97.3842 343.4229 0005087  20.6774 339.4669 15.25800701151222","mean_motion":15.25800701,"eccentricity":0.0005087,"inclination_deg":97.3842,"raan_deg":343.4229,"arg_perigee_deg":20.6774,"mean_anomaly_deg":339.4669,"bstar":0.00014817,"rev_number":15122,"period_min":94.376677049384,"perigee_km":484.88913592292,"apogee_km":491.87513249006,"semimajor_km":6866.5191342065,"source":"CELESTRAK","updated_at":"2026-09-23T09:00:21.549241Z"}}}